This is the latest recevied weather packets stored in our database for station/object VK6DUG. If no packets are shown the sender has not sent any weather packets the latest 10 day(s).
| Time | Temp. | Humidity | Pressure | Rain* | Wind** | Luminosity | Snow |
|---|---|---|---|---|---|---|---|
| 1778182236 | 13.33° C | 72% | 1032.2 hPa | 0 mm | - | 0 W/m² | - |
| 1778181633 | 13.89° C | 71% | 1032.2 hPa | 0 mm | - | 0 W/m² | - |
| 1778181030 | 13.89° C | 71% | 1032.3 hPa | 0 mm | - | 0 W/m² | - |
| 1778180425 | 13.89° C | 70% | 1032.4 hPa | 0 mm | - | 0 W/m² | - |
| 1778179822 | 13.89° C | 69% | 1032.2 hPa | 0 mm | - | 0 W/m² | - |
| 1778179217 | 14.44° C | 68% | 1032.1 hPa | 0 mm | - | 0 W/m² | - |
| 1778178635 | 14.44° C | 68% | 1032.1 hPa | 0 mm | - | 0 W/m² | - |
| 1778178032 | 15° C | 67% | 1032 hPa | 0 mm | - | 0 W/m² | - |
| 1778177426 | 15° C | 66% | 1032.1 hPa | 0 mm | - | 0 W/m² | - |
| 1778176821 | 15.56° C | 65% | 1032.1 hPa | 0 mm | - | 0 W/m² | - |
| 1778176216 | 15.56° C | 65% | 1032 hPa | 0 mm | - | 0 W/m² | - |
| 1778175633 | 15.56° C | 65% | 1032 hPa | 0 mm | - | 0 W/m² | - |
| 1778175030 | 15.56° C | 65% | 1032.1 hPa | 0 mm | - | 0 W/m² | - |
| 1778174427 | 15.56° C | 65% | 1032.1 hPa | 0 mm | - | 0 W/m² | - |
| 1778173823 | 15.56° C | 66% | 1032 hPa | 0 mm | - | 0 W/m² | - |
| 1778173219 | 15.56° C | 65% | 1032.1 hPa | 0 mm | - | 0 W/m² | - |
| 1778172635 | 15.56° C | 65% | 1032.1 hPa | 0 mm | - | 0 W/m² | - |
| 1778172032 | 15° C | 66% | 1032.1 hPa | 0 mm | - | 0 W/m² | - |
| 1778171429 | 15° C | 66% | 1032 hPa | 0 mm | - | 0 W/m² | - |
| 1778170824 | 15° C | 67% | 1031.9 hPa | 0 mm | - | 0 W/m² | - |
| 1778170219 | 14.44° C | 68% | 1032 hPa | 0 mm | - | 0 W/m² | - |
| 1778169633 | 13.89° C | 72% | 1032 hPa | 0 mm | - | 0 W/m² | - |
| 1778169028 | 12.78° C | 74% | 1031.9 hPa | 0 mm | - | 0 W/m² | - |
| 1778168424 | 12.78° C | 74% | 1032 hPa | 0 mm | - | 0 W/m² | - |
| 1778167821 | 12.78° C | 73% | 1031.9 hPa | 0 mm | - | 0 W/m² | - |
* Rain latest hour (hover to see other rain measurements)
** Current wind speed in m/s (hover to see current wind gust speed)